sat.trackr.live / text

‹ back to catalog

STARLINK-34031

NORAD 63912 · 2025-095Y

PAYLOAD ACTIVE UNKNOWN

§ Identity

Operator
Country
US
Launch date
2025-05-10
Launch site
AFETR
Launch vehicle
Mass (kg)
RCS (m²)

Purposes: comms

External: N2YO · Heavens-Above · Gunter

§ Orbital elements

Epoch: 2026-05-25T04:05:38.039424Z

Period
94.27 min
Inclination
42.9993°
Eccentricity
0.0001257
Mean motion
15.27565271 rev/d
Perigee alt
482.2 km
Apogee alt
484.0 km
Semi-major
6,861.2 km
B*
4.1867e-4
RAAN
104.3697°
Arg perigee
259.6479°
Mean anomaly
100.4231°
Rev number
5,947

§ Raw data

STARLINK-340311 63912U 25095Y   26145.17057916  .00011271  00000+0  41867-3 0  99962 63912  42.9993 104.3697 0001257 259.6479 100.4231 15.27565271 59473

JSON: /api/v1/satellites/63912 · /tle

For live sub-satellite position, see the globe view (requires WebGL).

§ Visibility from observer

Set your observer location to see the next 7 days of passes ≥ 10°. The values pass through the URL so the page stays shareable.

No JS? Fill the form by hand. The geolocation button needs JavaScript.